Regional Weather Roundup
Issued by NWS Columbia, SC

Home | Current Version | Previous Version | Text Only | Print | Product List | Glossary On
Versions: 1 2 3 4 5 6 7 8 9 10 11 12 13 14 15 16 17 18 19 20 21 22 23 24 25 26 27 28 29 30 31 32 33 34 35 36 37 38 39 40 41 42 43 44 45 46 47 48 49 50
000
ASUS42 KCAE 271210
RWRCAE
REGIONAL WEATHER ROUNDUP
NATIONAL WEATHER SERVICE COLUMBIA SC
800 AM EDT THU JUN 27 2019

NOTE: "FAIR" INDICATES FEW OR NO CLOUDS BELOW 12,000 FEET WITH NO
SIGNIFICANT WEATHER AND/OR OBSTRUCTIONS TO VISIBILITY.

NOT ALL STATIONS ARE QUALITY CONTROLLED BY THE NATIONAL
WEATHER SERVICE. USE DATA WITH CAUTION...ESPECIALLY
DEWPOINT OBSERVATIONS.

SCZ001>056-GAZ040-063>065-077-271300-
...UPSTATE SOUTH CAROLINA...

CITY           SKY/WX    TMP DP  RH WIND       PRES   REMARKS
ANDERSON       FAIR      74  68  81 CALM      30.20R
6HR MIN TEMP:  71; 6HR MAX TEMP:  74;

LIBERTY        FAIR      72  72  98 NE3       30.21R
6HR MIN TEMP:  65; 6HR MAX TEMP:  70;

SPARTANBURG    FAIR      72  64  78 NE3       30.21R
CLEMSON        FAIR      71  66  84 N5        30.22R
6HR MIN TEMP:  70; 6HR MAX TEMP:  73;

GREENVILLE     FAIR      77  68  73 NE5       30.22R
6HR MIN TEMP:  72; 6HR MAX TEMP:  77;

GREENWOOD      FAIR      71  69  93 N3        30.20R
6HR MIN TEMP:  69; 6HR MAX TEMP:  71;

GREER          FAIR      73  66  78 N5        30.22R
6HR MIN TEMP:  68; 6HR MAX TEMP:  73;

ROCK HILL      FAIR      73  69  87 CALM      30.21R
6HR MIN TEMP:  68; 6HR MAX TEMP:  73;

CHESTER        FAIR      73  68  83 CALM      30.22R
LAURENS        FAIR      70  70 100 CALM      30.20R


...CENTRAL SOUTH CAROLINA...

CITY           SKY/WX    TMP DP  RH WIND       PRES   REMARKS
COLUMBIA APT   PTSUNNY   74  69  85 CALM      30.17R
6HR MIN TEMP:  71; 6HR MAX TEMP:  74;

COLUMBIA OWENS FAIR      76  70  82 CALM      30.18R
6HR MIN TEMP:  72; 6HR MAX TEMP:  76;

MCENTIRE ANGB  PTSUNNY   75  70  86 CALM      30.18R
6HR MIN TEMP:  67; 6HR MAX TEMP:  75;

ORANGEBURG     FAIR      76  68  76 NE3       30.17R
6HR MIN TEMP:  69; 6HR MAX TEMP:  76;

SUMTER SHAW    PTSUNNY   75  67  76 NE5       30.17R
6HR MIN TEMP:  70; 6HR MAX TEMP:  76;

AIKEN          FAIR      73  70  88 CALM      30.21R
BARNWELL       FAIR      73  70  88 CALM      30.17R
MANNING        FAIR      72  66  83 NE5       30.17R
CAMDEN         FAIR      73  66  78 CALM      30.19R
LANCASTER        N/A     70  68  94 CALM      30.20S
WINNSBORO      FAIR      72  68  88 NE5       30.20R


...EASTERN AND COASTAL SOUTH CAROLINA...

CITY           SKY/WX    TMP DP  RH WIND       PRES   REMARKS
MYRTLE BEACH   FAIR      76  69  79 N3        30.15S
6HR MIN TEMP:  73; 6HR MAX TEMP:  76;

N MYRTLE BCH   FAIR      77  72  84 NE6       30.15R
6HR MIN TEMP:  72; 6HR MAX TEMP:  77;

CONWAY         FAIR      72  68  88 N3        30.16R
MARION         FAIR      77  68  73 NE5       30.17S
HARTSVILLE     FAIR      73  64  73 N5        30.18R
FLORENCE       FAIR      78  67  68 E5        30.17R
6HR MIN TEMP:  72; 6HR MAX TEMP:  78;

DARLINGTON     FAIR      75  66  73 N8        30.19R
6HR MIN TEMP:  68; 6HR MAX TEMP:  75;

CHARLESTON APT PTSUNNY   76  68  76 CALM      30.15R
6HR MIN TEMP:  70; 6HR MAX TEMP:  76;

MOUNT PLEASANT FAIR      77  72  83 CALM      30.14S
WALTERBORO     FAIR      72  68  88 CALM      30.16S
BEAUFORT       PTSUNNY   77  72  84 NE5       30.15R
6HR MIN TEMP:  73; 6HR MAX TEMP:  77;

HILTON HEAD    MOSUNNY   79  72  78 N6        30.15R


...EASTERN GEORGIA...

CITY           SKY/WX    TMP DP  RH WIND       PRES   REMARKS
AUGUSTA BUSH F FAIR      73  71  93 CALM      30.16R
6HR MIN TEMP:  68; 6HR MAX TEMP:  73;

AUGUSTA DANIEL FAIR      78  67  68 CALM      30.18R
6HR MIN TEMP:  74; 6HR MAX TEMP:  78;

THOMSON        FAIR      71  69  94 MISG      30.18R
6HR MIN TEMP:  68; 6HR MAX TEMP:  71;

WASHINGTON     FAIR      72  70  94 CALM      30.18R
CLAXTON        FAIR      70  69  98 CALM      30.16R FOG
6HR MIN TEMP:  66; 6HR MAX TEMP:  71;

SYLVANIA       FAIR      70  68  93 CALM      30.17S
6HR MIN TEMP:  68; 6HR MAX TEMP:  72;

STATESBORO     FAIR      70  67  92 CALM      30.16S
6HR MIN TEMP:  66; 6HR MAX TEMP:  70;

SAVANNAH       PTSUNNY   75  70  84 CALM      30.15R
6HR MIN TEMP:  71; 6HR MAX TEMP:  75;



...SOUTHERN NORTH CAROLINA...

CITY           SKY/WX    TMP DP  RH WIND       PRES   REMARKS
CHARLOTTE      FAIR      76  68  76 N8        30.21R
6HR MIN TEMP:  69; 6HR MAX TEMP:  76;

MONROE         FAIR      76  66  71 N6        30.19R
6HR MIN TEMP:  69; 6HR MAX TEMP:  76;

WADESBORO      FAIR      72  68  87 CALM      30.19S FOG
ROCKINGHAM     FAIR      74  64  70 CALM      30.20R
RUTHERFORDTON  FAIR      72  64  78 CALM      30.24S
ASHEVILLE      FAIR      66  60  81 NW5       30.31R
6HR MIN TEMP:  62; 6HR MAX TEMP:  66;


$$



USA.gov is the U.S. government's official web portal to all federal, state and local government web resources and services.